FW3894 Weather Reports


Display with metric or nautical units.
time (UTC)temp
F
wind
direction
speed
MPH
gust
MPH
rain 1hr
in
rain 24hr
in
rain mn
in
humidity
%
barometer
mb
20260503232010 58 313 5.0 13.0 0.00 0.00 0.00 39 1010.7
20260503231528 58 303 5.0 15.0 0.00 0.00 0.00 38 1010.6
20260503231011 58 240 8.0 15.0 0.00 0.00 0.00 37 1010.6
20260503230510 58 333 8.0 15.0 0.00 0.00 0.00 39 1010.5
20260503230029 59 308 8.0 15.0 0.00 0.00 0.00 43 1010.4
20260503225513 59 327 9.0 18.0 0.00 0.00 0.00 36 1010.3
20260503225011 59 304 8.0 21.0 0.00 0.00 0.00 36 1010.3
20260503224531 59 303 11.0 21.0 0.00 0.00 0.00 41 1010.3
20260503224016 59 314 4.0 14.0 0.00 0.00 0.00 38 1010.3
20260503223512 59 279 6.0 14.0 0.00 0.00 0.00 38 1010.2
20260503223032 59 281 4.0 14.0 0.00 0.00 0.00 35 1010.2
20260503222509 59 319 7.0 14.0 0.00 0.00 0.00 38 1010.2
20260503222011 59 262 6.0 14.0 0.00 0.00 0.00 35 1010.1
20260503221531 60 348 4.0 11.0 0.00 0.00 0.00 36 1010.2
20260503221010 59 324 5.0 16.0 0.00 0.00 0.00 39 1010.2
20260503220510 59 352 3.0 18.0 0.00 0.00 0.00 37 1010.2
20260503220028 59 306 12.0 18.0 0.00 0.00 0.00 39 1010.2
20260503215511 59 306 6.0 18.0 0.00 0.00 0.00 39 1010.3
20260503215016 59 337 8.0 24.0 0.00 0.00 0.00 39 1010.1
20260503214531 59 325 9.0 24.0 0.00 0.00 0.00 42 1010.1
20260503214010 59 315 14.0 24.0 0.00 0.00 0.00 40 1010.0
20260503213515 59 300 7.0 20.0 0.00 0.00 0.00 38 1010.0
20260503213039 59 296 5.0 20.0 0.00 0.00 0.00 38 1010.0
20260503212510 59 328 10.0 20.0 0.00 0.00 0.00 39 1010.1
20260503212012 59 308 5.0 17.0 0.00 0.00 0.00 41 1010.0
20260503211535 59 231 7.0 22.0 0.00 0.00 0.00 42 1009.9
20260503211010 58 321 12.0 22.0 0.00 0.00 0.00 43 1010.0
20260503210511 58 294 13.0 22.0 0.00 0.00 0.00 41 1010.0
20260503210034 59 232 5.0 23.0 0.00 0.00 0.00 37 1010.0
20260503205508 59 270 10.0 23.0 0.00 0.00 0.00 40 1010.0
20260503205015 59 269 5.0 21.0 0.00 0.00 0.00 39 1009.8
20260503204533 58 81 5.0 21.0 0.00 0.00 0.00 38 1009.9
20260503204013 59 305 8.0 21.0 0.00 0.00 0.00 39 1009.9
20260503203510 59 280 3.0 19.0 0.00 0.00 0.00 39 1009.9
20260503203030 58 303 12.0 24.0 0.00 0.00 0.00 42 1009.7
20260503202552 58 352 7.0 24.0 0.00 0.00 0.00 40 1009.9
20260503202013 58 306 14.0 24.0 0.00 0.00 0.00 45 1009.7
20260503201528 58 332 8.0 25.0 0.00 0.00 0.00 43 1009.7
20260503201011 57 286 12.0 25.0 0.00 0.00 0.00 42 1009.9
20260503200513 58 278 13.0 20.0 0.00 0.00 0.00 42 1010.1
20260503200032 58 306 4.0 20.0 0.00 0.00 0.00 41 1010.1
20260503195509 57 302 11.0 21.0 0.00 0.00 0.00 43 1010.2
20260503195015 56 0 11.0 28.0 0.00 0.00 0.00 47 1010.2
20260503194529 56 314 15.0 28.0 0.00 0.00 0.00 44 1010.0
20260503194010 57 312 10.0 19.0 0.00 0.00 0.00 45 1010.2
20260503193511 57 301 6.0 20.0 0.00 0.00 0.00 45 1010.3
20260503193032 57 344 12.0 20.0 0.00 0.00 0.00 45 1010.3
20260503192512 57 315 3.0 15.0 0.00 0.00 0.00 44 1010.4
20260503192008 57 304 4.0 18.0 0.00 0.00 0.00 44 1010.4
20260503191529 56 305 8.0 18.0 0.00 0.00 0.00 43 1010.3
20260503191008 56 288 4.0 23.0 0.00 0.00 0.00 46 1010.6
20260503190511 56 318 12.0 26.0 0.00 0.00 0.00 45 1010.5
20260503190042 55 348 16.0 26.0 0.00 0.00 0.00 47 1010.6
20260503185509 56 305 8.0 21.0 0.00 0.00 0.00 47 1010.6
20260503185008 56 5 6.0 21.0 0.00 0.00 0.00 44 1010.8
20260503184528 55 303 7.0 21.0 0.00 0.00 0.00 45 1010.6
20260503184012 55 284 9.0 20.0 0.00 0.00 0.00 44 1010.7
20260503183516 55 307 10.0 19.0 0.00 0.00 0.00 43 1010.6
20260503183030 55 307 8.0 19.0 0.00 0.00 0.00 47 1010.7
20260503182508 55 295 6.0 17.0 0.00 0.00 0.00 44 1010.8
20260503182012 55 22 6.0 23.0 0.00 0.00 0.00 46 1010.7
20260503181528 55 311 10.0 23.0 0.00 0.00 0.00 46 1010.8
20260503181009 55 271 7.0 22.0 0.00 0.00 0.00 46 1010.8
20260503180511 55 267 10.0 23.0 0.00 0.00 0.00 47 1010.9
20260503180038 55 317 7.0 23.0 0.00 0.00 0.00 48 1010.7
20260503175508 55 168 4.0 19.0 0.00 0.00 0.00 43 1010.8
20260503175011 54 277 7.0 19.0 0.00 0.00 0.00 49 1010.9
20260503174529 53 272 9.0 18.0 0.00 0.00 0.00 47 1010.8
20260503174008 54 209 6.0 21.0 0.00 0.00 0.00 45 1010.9
20260503173508 54 289 7.0 21.0 0.00 0.00 0.00 46 1011.0
20260503173031 54 285 7.0 21.0 0.00 0.00 0.00 46 1010.9
20260503172508 54 257 5.0 18.0 0.00 0.00 0.00 45 1010.8
20260503172013 54 328 6.0 12.0 0.00 0.00 0.00 44 1010.8
20260503171538 54 337 6.0 12.0 0.00 0.00 0.00 47 1010.9
20260503171008 53 308 8.0 23.0 0.00 0.00 0.00 48 1010.9
20260503170508 53 303 6.0 23.0 0.00 0.00 0.00 51 1011.1
20260503151012 52 320 3.0 16.0 0.00 0.00 0.00 51 1011.3
20260503150509 51 302 4.0 16.0 0.00 0.00 0.00 54 1011.4
20260503131009 49 342 3.0 14.0 0.00 0.00 0.00 60 1011.2
20260503130512 49 315 3.0 14.0 0.00 0.00 0.00 62 1011.3
20260503110510 47 0 2.0 10.0 0.00 0.00 0.00 60 1010.3
20260503090512 47 331 2.0 7.0 0.00 0.00 0.00 57 1008.7
20260503081538 48 334 1.0 4.0 0.00 0.00 0.00 57 1008.6
20260503081008 48 323 1.0 5.0 0.00 0.00 0.00 56 1008.6
20260503080512 49 308 0.0 5.0 0.00 0.00 0.00 56 1008.5
20260503072510 50 0 0.0 6.0 0.00 0.00 0.00 54 1008.6
20260503072013 50 0 0.0 6.0 0.00 0.00 0.00 55 1008.5
20260503071530 50 306 1.0 7.0 0.00 0.00 0.00 55 1008.7
20260503071010 50 355 1.0 7.0 0.00 0.00 0.00 55 1008.5
20260503070511 50 289 1.0 5.0 0.00 0.00 0.00 54 1008.5
20260503055012 52 338 1.0 5.0 0.00 0.00 0.00 56 1008.7
20260503054538 52 348 1.0 4.0 0.00 0.00 0.00 56 1008.9
20260503054010 52 325 1.0 5.0 0.00 0.00 0.00 56 1009.0
20260503053511 52 325 1.0 5.0 0.00 0.00 0.00 57 1009.1
20260503053030 51 322 2.0 5.0 0.00 0.00 0.00 55 1008.7
20260503052509 51 348 1.0 5.0 0.00 0.00 0.00 56 1008.7
20260503052013 52 331 1.0 3.0 0.00 0.00 0.00 56 1008.7
20260503051529 51 317 1.0 5.0 0.00 0.00 0.00 58 1008.9
20260503051009 51 295 2.0 5.0 0.00 0.00 0.00 58 1008.9
20260503050509 51 288 1.0 5.0 0.00 0.00 0.00 59 1008.8
20260503050028 51 329 1.0 4.0 0.00 0.00 0.00 59 1008.9
20260503045511 51 340 1.0 4.0 0.00 0.00 0.00 60 1009.1
20260503045013 51 0 1.0 4.0 0.00 0.00 0.00 63 1009.0
20260503044531 51 327 0.0 4.0 0.00 0.00 0.00 64 1009.3
20260503044011 51 333 1.0 4.0 0.00 0.00 0.00 65 1009.4
20260503043510 51 287 1.0 4.0 0.00 0.00 0.00 64 1009.5
20260503043028 51 270 1.0 4.0 0.00 0.00 0.00 66 1009.7
20260503042510 51 313 2.0 4.0 0.00 0.00 0.00 66 1009.7
20260503042016 51 303 1.0 4.0 0.00 0.00 0.00 67 1009.6
20260503041528 51 317 1.0 3.0 0.00 0.00 0.00 67 1009.7
20260503041011 51 320 0.0 4.0 0.00 0.00 0.00 68 1009.6
20260503040514 52 305 1.0 4.0 0.00 0.00 0.00 68 1009.6
20260503040028 52 313 1.0 4.0 0.00 0.00 0.00 69 1009.5
20260503035509 52 336 0.0 3.0 0.00 0.00 0.00 69 1009.4
20260503035011 52 313 0.0 3.0 0.00 0.00 0.00 68 1009.5
20260503034528 52 0 1.0 3.0 0.00 0.00 0.00 69 1009.4
20260503034010 52 325 0.0 3.0 0.00 0.00 0.00 70 1009.5
20260503033510 52 0 0.0 3.0 0.00 0.00 0.00 69 1009.7
20260503033041 52 313 1.0 3.0 0.00 0.00 0.00 69 1009.5
20260503032511 52 0 0.0 3.0 0.00 0.00 0.00 70 1009.5
20260503032014 52 327 0.0 3.0 0.00 0.00 0.00 71 1009.7
20260503031530 52 311 1.0 3.0 0.00 0.00 0.00 71 1009.7
20260503031008 52 313 0.0 2.0 0.00 0.00 0.00 73 1009.4
20260503030507 52 307 0.0 2.0 0.00 0.00 0.00 73 1009.5
20260503030034 52 315 1.0 3.0 0.00 0.00 0.00 75 1009.7
20260503025507 52 323 0.0 3.0 0.00 0.00 0.00 77 1009.4
20260503025007 52 0 0.0 3.0 0.00 0.00 0.00 78 1009.3
20260503024532 51 326 1.0 3.0 0.00 0.00 0.00 79 1009.4
20260503024011 51 0 0.0 2.0 0.00 0.00 0.00 81 1009.3
20260503023511 51 301 0.0 4.0 0.00 0.00 0.00 83 1009.3
20260503023028 51 0 0.0 4.0 0.00 0.00 0.00 83 1009.5
20260503022509 51 313 1.0 4.0 0.00 0.00 0.00 83 1009.6
20260503022011 51 289 1.0 4.0 0.00 0.00 0.00 83 1009.7
20260503021530 51 269 1.0 4.0 0.00 0.00 0.00 84 1009.7
20260503021011 51 253 1.0 5.0 0.00 0.00 0.00 84 1009.8
20260503020511 51 313 2.0 5.0 0.00 0.00 0.00 84 1009.7
20260503020028 51 307 1.0 3.0 0.00 0.00 0.00 83 1009.4
20260503015512 52 319 1.0 3.0 0.00 0.00 0.00 83 1009.6
20260503015008 52 319 1.0 4.0 0.00 0.00 0.00 83 1009.7
20260503014541 52 281 2.0 4.0 0.00 0.00 0.00 83 1009.7
20260503014011 52 0 1.0 5.0 0.00 0.00 0.00 82 1009.9
20260503013508 52 268 2.0 6.0 0.00 0.00 0.00 82 1009.9
20260503013034 52 0 1.0 6.0 0.00 0.00 0.00 82 1009.7
20260503012508 52 298 1.0 5.0 0.00 0.00 0.00 82 1009.8
20260503012015 52 281 2.0 5.0 0.00 0.00 0.00 82 1009.8
20260503011534 53 265 1.0 7.0 0.00 0.00 0.00 82 1009.8
20260503011009 53 275 2.0 7.0 0.00 0.00 0.00 82 1009.7
20260503010511 53 244 2.0 5.0 0.00 0.00 0.00 83 1009.7
20260503010038 52 265 1.0 5.0 0.00 0.00 0.00 83 1009.5
20260503005511 52 245 1.0 4.0 0.00 0.00 0.00 82 1009.5
20260503005011 52 207 2.0 4.0 0.00 0.00 0.00 82 1009.6
20260503004530 52 210 1.0 4.0 0.00 0.00 0.00 83 1009.4
20260503004008 52 178 1.0 5.0 0.00 0.00 0.00 83 1009.4
20260503003508 52 184 2.0 5.0 0.00 0.00 0.00 83 1009.4
20260503003028 52 0 1.0 3.0 0.00 0.00 0.00 82 1009.2
20260503002508 52 176 0.0 2.0 0.00 0.00 0.00 81 1009.1
20260503002011 52 176 0.0 2.0 0.00 0.00 0.00 80 1009.3
20260503001530 52 181 0.0 3.0 0.00 0.00 0.00 80 1009.2
20260503001011 53 181 1.0 3.0 0.00 0.00 0.00 79 1009.3
20260503000513 53 182 1.0 5.0 0.00 0.00 0.00 78 1009.3
20260503000029 53 174 1.0 5.0 0.00 0.00 0.00 76 1009.4
20260502235510 53 0 0.0 3.0 0.00 0.00 0.00 76 1009.4
20260502235017 53 0 1.0 3.0 0.00 0.00 0.00 76 1009.3
20260502234529 54 0 1.0 3.0 0.00 0.00 0.00 75 1009.4
20260502234011 54 182 1.0 5.0 0.00 0.00 0.00 75 1009.4
20260502233510 54 200 2.0 5.0 0.00 0.00 0.00 74 1009.4
20260502233030 54 176 1.0 4.0 0.00 0.00 0.00 74 1009.4
20260502232508 54 162 1.0 4.0 0.00 0.00 0.00 75 1009.4